TimePST,TemperatureF,Dew PointF,Humidity,Sea Level PressureIn,VisibilityMPH,Wind Direction,Wind SpeedMPH,Gust SpeedMPH,PrecipitationIn,Events,Conditions,WindDirDegrees,DateUTC
12:53 AM,30.0,24.1,79,30.26,10.0,West,3.5,-,N/A,,Clear,280,2013-02-10 08:53:00
1:53 AM,33.1,26.1,75,30.27,10.0,WSW,8.1,-,N/A,,Clear,250,2013-02-10 09:53:00
2:53 AM,34.0,26.1,73,30.27,10.0,West,9.2,-,N/A,,Clear,260,2013-02-10 10:53:00
3:53 AM,30.9,24.1,76,30.28,10.0,West,8.1,-,N/A,,Clear,260,2013-02-10 11:53:00
4:53 AM,26.1,21.9,84,30.30,10.0,West,6.9,-,N/A,,Clear,270,2013-02-10 12:53:00
5:53 AM,27.0,21.9,81,30.29,10.0,West,8.1,-,N/A,,Clear,260,2013-02-10 13:53:00
6:53 AM,27.0,21.9,81,30.31,10.0,West,4.6,-,N/A,,Clear,270,2013-02-10 14:53:00
7:53 AM,28.9,23.0,78,30.32,10.0,West,6.9,-,N/A,,Clear,280,2013-02-10 15:53:00
8:53 AM,37.0,27.0,67,30.30,10.0,WSW,6.9,-,N/A,,Clear,250,2013-02-10 16:53:00
9:53 AM,42.1,28.0,58,30.31,10.0,West,5.8,-,N/A,,Clear,260,2013-02-10 17:53:00
10:53 AM,46.0,28.0,50,30.30,10.0,WSW,3.5,-,N/A,,Clear,250,2013-02-10 18:53:00
11:53 AM,48.9,28.9,46,30.29,10.0,West,4.6,-,N/A,,Clear,260,2013-02-10 19:53:00
12:53 PM,52.0,28.0,40,30.26,10.0,Calm,Calm,-,N/A,,Clear,0,2013-02-10 20:53:00
1:53 PM,52.0,28.0,40,30.24,10.0,Calm,Calm,-,N/A,,Clear,0,2013-02-10 21:53:00
2:53 PM,55.0,28.0,35,30.22,10.0,SW,3.5,-,N/A,,Clear,220,2013-02-10 22:53:00
3:53 PM,53.1,27.0,37,30.22,10.0,SE,4.6,-,N/A,,Clear,130,2013-02-10 23:53:00
4:53 PM,50.0,27.0,41,30.22,10.0,South,3.5,-,N/A,,Clear,190,2013-02-11 00:53:00
5:53 PM,37.9,27.0,65,30.23,10.0,Calm,Calm,-,N/A,,Clear,0,2013-02-11 01:53:00
6:53 PM,34.0,26.1,73,30.25,10.0,West,6.9,-,N/A,,Clear,280,2013-02-11 02:53:00
7:53 PM,35.1,27.0,72,30.25,10.0,WNW,4.6,-,N/A,,Clear,290,2013-02-11 03:53:00
8:53 PM,30.0,24.1,79,30.25,10.0,West,4.6,-,N/A,,Clear,260,2013-02-11 04:53:00
9:53 PM,28.9,24.1,82,30.25,10.0,West,5.8,-,N/A,,Clear,270,2013-02-11 05:53:00
10:53 PM,28.0,23.0,81,30.24,10.0,WNW,5.8,-,N/A,,Clear,290,2013-02-11 06:53:00
11:53 PM,27.0,23.0,85,30.23,10.0,NW,5.8,-,N/A,,Clear,310,2013-02-11 07:53:00